Tallevast, FL

10:36 PM EST on December 07, 2016 (GMT -0500)
Sarasota-bradenton

Weather History for KSRQ - March, 2015

Change the Weather History Date:

Monday, March 16, 2015

  Actual Average Record
Temperature  
Mean Temperature 73 °F 67 °F  
Max Temperature 81 °F 76 °F 89 °F (1945)
Min Temperature 64 °F 57 °F 36 °F (1932)
Degree Days  
Heating Degree Days 0 1  
Month to date heating degree days 0 35  
Since 1 July heating degree days 457 453  
Cooling Degree Days 8 3  
Month to date cooling degree days 135 48  
Year to date cooling degree days 204 152  
Growing Degree Days 22 (Base 50)    
Moisture  
Dew Point 63 °F    
Average Humidity 75    
Maximum Humidity 93    
Minimum Humidity 58    
Precipitation  
Precipitation 0.00 in 0.12 in 2.10 in (1986)
Month to date precipitation 0.07 2.06  
Year to date precipitation 4.95 7.25  
Sea Level Pressure  
Sea Level Pressure 30.12 in    
Wind  
Wind Speed 7 mph (NNW)    
Max Wind Speed 15 mph    
Max Gust Speed 19 mph    
Visibility 10 miles    
Events      
T = Trace of Precipitation, MM = Missing Value Source: NWS Daily Summary

Daily Weather History Graph

Daily Weather History Graph

Search for Another Location

Airport or City:

Trip Planner

Search our weather history database for the weather conditions in past years. The results will help you decide how hot, cold, wet, or windy it might be!

Date:

Astronomy

Mar. 16, 2015 Rise Set
Actual Time 7:38 AM EDT 7:39 PM EDT
Civil Twilight 7:15 AM EDT 8:02 PM EDT
Nautical Twilight 6:48 AM EDT 8:29 PM EDT
Astronomical Twilight 6:21 AM EDT 8:56 PM EDT
Moon 4:30 AM EDT (3/16) 3:51 PM EDT (3/16)
Length of Visible Light 12h 47m
Length of Day
12h 00m
Waning Crescent, 19% of the Moon is Illuminated
Mar 16
Waning Crescent
Mar 20
New
Mar 27
First Quarter
Apr 4
Full
Apr 11
Last Quarter

Hourly Weather History & Observations

Time (EDT) Temp. Heat Index Dew Point Humidity Pressure Visibility Wind Dir Wind Speed Gust Speed Precip Events Conditions
12:53 AM 68.0 °F - 60.1 °F 76% 30.16 in 10.0 mi NNW 4.6 mph - N/A   Clear
1:53 AM 66.9 °F - 61.0 °F 81% 30.13 in 10.0 mi NW 3.5 mph - N/A   Clear
2:53 AM 66.9 °F - 61.0 °F 81% 30.14 in 10.0 mi NNE 5.8 mph - N/A   Clear
3:53 AM 66.0 °F - 60.1 °F 81% 30.13 in 10.0 mi Calm Calm - N/A   Clear
4:53 AM 64.9 °F - 62.1 °F 90% 30.12 in 10.0 mi North 4.6 mph - N/A   Clear
5:53 AM 64.0 °F - 61.0 °F 90% 30.13 in 10.0 mi Calm Calm - N/A   Clear
6:53 AM 64.9 °F - 63.0 °F 93% 30.14 in 10.0 mi NNE 3.5 mph - N/A   Clear
7:53 AM 68.0 °F - 63.0 °F 84% 30.14 in 10.0 mi NNE 9.2 mph - N/A   Overcast
8:53 AM 69.1 °F - 63.0 °F 81% 30.16 in 10.0 mi NE 4.6 mph - N/A   Overcast
9:53 AM 72.0 °F - 62.1 °F 71% 30.17 in 10.0 mi East 8.1 mph - N/A   Clear
10:53 AM 75.9 °F - 62.1 °F 62% 30.17 in 10.0 mi East 6.9 mph - N/A   Clear
11:53 AM 78.1 °F - 64.0 °F 62% 30.16 in 10.0 mi Variable 4.6 mph - N/A   Clear
12:53 PM 81.0 °F 82.7 °F 64.9 °F 58% 30.14 in 10.0 mi WSW 9.2 mph - N/A   Clear
1:53 PM 79.0 °F - 66.0 °F 64% 30.13 in 10.0 mi West 12.7 mph - N/A   Clear
2:53 PM 79.0 °F - 66.0 °F 64% 30.10 in 10.0 mi West 13.8 mph - N/A   Clear
3:53 PM 80.1 °F 82.3 °F 66.9 °F 64% 30.08 in 10.0 mi West 12.7 mph - N/A   Clear
4:53 PM 79.0 °F - 64.9 °F 62% 30.07 in 10.0 mi West 12.7 mph - N/A   Clear
5:53 PM 77.0 °F - 66.0 °F 69% 30.07 in 10.0 mi West 13.8 mph - N/A   Clear
6:53 PM 75.9 °F - 64.9 °F 69% 30.07 in 10.0 mi NW 11.5 mph - N/A   Clear
7:53 PM 72.0 °F - 64.0 °F 76% 30.09 in 10.0 mi NW 10.4 mph - N/A   Clear
8:53 PM 71.1 °F - 63.0 °F 75% 30.09 in 10.0 mi NNW 8.1 mph - N/A   Clear
9:53 PM 70.0 °F - 63.0 °F 78% 30.10 in 10.0 mi NNW 6.9 mph - N/A   Clear
10:53 PM 70.0 °F - 63.0 °F 78% 30.11 in 10.0 mi Calm Calm - N/A   Clear
11:53 PM 68.0 °F - 62.1 °F 81% 30.10 in 10.0 mi NNW 3.5 mph - N/A   Clear